R8AHC-W5 Weather Reports


Display with metric or nautical units.
time (UTC)temp
F
wind
direction
speed
MPH
gust
MPH
rain 1hr
in
rain 24hr
in
rain mn
in
humidity
%
barometer
mb
20260508175502 58 272 3.0 0.0 0.00 0.00 0.00 84 1007.0
20260508165502 62 335 3.0 0.0 0.00 0.00 0.00 71 1007.0
20260508155502 64 1 1.0 0.0 0.00 0.00 0.00 66 1008.0
20260508145502 65 152 4.0 0.0 0.00 0.00 0.00 64 1008.0
20260508135501 68 132 3.0 0.0 0.00 0.00 0.00 59 1008.0
20260508125501 69 122 2.0 0.0 0.00 0.00 0.00 51 1008.0
20260508115502 68 57 2.0 0.0 0.00 0.00 0.00 58 1008.0
20260508105503 66 190 3.0 0.0 0.00 0.00 0.00 64 1009.0
20260508085502 67 150 6.0 0.0 0.00 0.00 0.00 66 1010.0
20260508075502 69 145 5.0 0.0 0.00 0.00 0.00 59 1010.0
20260508065502 71 134 3.0 0.0 0.00 0.00 0.00 53 1009.0
20260508055502 70 98 5.0 0.0 0.00 0.00 0.00 55 1010.0
20260508045502 68 114 5.0 0.0 0.00 0.00 0.00 59 1010.0
20260508035502 66 110 5.0 0.0 0.00 0.00 0.00 62 1010.0
20260508025502 63 95 6.0 0.0 0.00 0.00 0.00 67 1010.0
20260508015501 61 81 5.0 0.0 0.00 0.00 0.00 72 1011.0
20260508005502 59 73 6.0 0.0 0.00 0.00 0.00 72 1011.0
20260507235502 60 81 6.0 0.0 0.00 0.00 0.00 73 1010.0
20260507225502 60 65 4.0 0.0 0.00 0.00 0.00 72 1010.0
20260507215502 61 143 3.0 0.0 0.00 0.00 0.00 70 1010.0
20260507205502 62 139 5.0 0.0 0.00 0.00 0.00 66 1010.0
20260507195502 63 146 6.0 0.0 0.00 0.00 0.00 64 1010.0
20260507185502 64 139 5.0 0.0 0.00 0.00 0.00 61 1010.0